CAPE
2822 2938 2792 2889 2715 2951 2509 2431 2247 1441 1051 709 871 622 387 484 218 353 298 228 96 139 75 33 40 73 8 6 26 24 19 23 27 27 38 30 94 53 59 84 60 37 32
2592 3036 2961 2939 2599 2571 2698 2541 2683 1857 1404 854 888 651 468 290 52 5 146 126 30 69 153 133 109 40 123 182 78 54 16 31 4 9 21 13 52 66 118 117 47 41 29
2512 2683 3025 3036 2770 2474 2780 2658 2718 2252 1377 908 887 630 366 212 33 16 71 106 132 151 161 152 170 148 158 139 201 176 66 89 58 37 36 0 12 13 33 57 68 34 41
2104 2289 2684 3139 3039 2753 2717 2810 2893 2204 1421 904 810 649 260 262 12 41 21 173 176 241 175 198 209 256 289 315 254 307 182 110 88 66 50 47 21 19 28 42 23 13 8
2343 2535 2791 3180 3124 3016 2552 2715 2808 2013 1471 938 604 466 275 86 12 6 45 160 350 334 148 366 411 429 371 267 217 78 122 83 76 63 36 27 19 42 68 48 6 4 25
2700 2743 2990 3416 3173 3057 2837 2522 2591 2034 1123 894 678 176 215 0 0 2 78 33 211 232 359 472 535 447 278 207 111 51 38 39 96 106 45 0 22 50 38 15 14 16 12
2789 2918 3154 3469 3422 3277 2967 2677 2462 1760 1168 656 361 288 0 14 0 0 0 16 88 244 423 660 535 378 260 231 179 95 59 23 1 0 36 71 34 50 0 1 1 4 0
2935 3119 3270 3531 3553 3305 2799 2571 2203 1546 1274 817 496 107 17 321 24 0 0 15 129 187 241 777 629 664 771 380 199 254 316 286 121 32 46 96 79 7 3 0 0 0 1
3072 3232 3318 3383 3581 3143 2567 2297 1868 1541 1284 1018 520 162 131 367 52 0 0 41 87 353 698 790 817 660 380 147 92 114 169 140 98 57 26 5 0 0 0 0 0 5 7
3138 3121 3317 3392 3232 2855 2531 2204 1821 1602 1224 999 646 459 305 385 383 14 11 210 45 195 585 781 487 334 37 35 22 58 146 157 53 47 25 1 0 0 0 0 11 27 22
2533 2707 2998 2969 2945 2700 2094 1965 1569 1272 1034 816 677 545 317 687 659 240 19 259 40 152 573 425 135 56 11 0 0 0 25 3 10 0 0 1 19 3 5 36 49 23 11
2573 2763 2977 2924 2630 2467 2140 1909 1348 1179 804 712 514 498 671 888 692 175 65 51 263 452 297 159 169 9 0 0 0 0 0 0 0 0 8 13 0 0 0 0 0 0 0
2854 2969 2916 2622 2356 2074 1888 1220 931 856 811 616 783 893 962 895 732 102 5 0 0 8 24 5 13 0 0 0 0 0 0 0 0 14 7 0 0 0 0 0 0 1 1
2986 2360 1932 1709 1650 1346 1098 989 791 729 920 1187 1117 985 905 872 598 139 17 0 0 0 0 1 0 0 0 0 0 0 0 1 11 0 0 0 0 0 0 0 0 0 0
1960 1545 1331 1160 1200 870 228 591 1095 206 578 1012 942 649 559 417 329 1 0 0 6 18 89 58 8 0 6 6 12 14 5 10 6 0 0 0 0 0 0 0 0 0 0
1818 1669 1448 1052 958 779 497 38 0 0 0 0 0 14 0 64 0 0 0 0 0 0 13 6 0 17 16 16 27 26 14 10 1 0 0 0 0 0 0 0 0 0 0
1538 1494 1046 920 845 818 581 417 162 0 0 0 0 0 0 0 0 0 0 0 0 0 0 0 0 15 12 9 10 20 8 4 0 0 0 0 0 0 0 0 0 0 0
1163 769 716 680 540 403 202 112 17 0 0 0 0 0 0 0 0 0 0 0 0 0 0 0 11 8 10 8 7 3 2 0 0 0 0 0 0 0 0 0 0 0 0
785 585 600 463 358 124 72 2 18 10 11 0 0 0 0 0 0 0 0 0 0 1 3 1 1 2 2 2 0 0 0 0 0 0 0 0 0 0 0 0 0 0 0
360 197 171 138 40 2 0 0 9 63 39 6 0 0 0 0 0 0 0 0 0 0 0 0 0 0 0 0 0 0 0 0 0 0 0 0 0 0 0 0 0 0 0
24 0 0 42 38 67 36 38 82 143 186 75 21 0 0 0 0 0 0 5 0 0 0 0 0 0 0 0 0 0 0 0 0 0 0 0 0 0 0 0 0 0 0
87 24 11 86 78 43 26 53 90 130 135 120 29 4 0 0 23 6 0 7 5 2 0 0 0 0 0 0 0 0 0 0 0 0 0 0 0 0 0 0 0 0 0
93 70 45 99 111 49 67 105 130 141 149 59 25 3 6 34 1 12 1 1 4 7 7 3 0 0 0 0 0 0 0 0 0 0 0 0 0 0 0 0 0 0 0
91 88 50 63 109 130 95 98 148 84 139 104 39 47 73 22 9 9 5 1 0 3 3 6 0 0 0 0 0 0 0 0 0 0 0 0 0 0 0 0 0 0 0
32 48 39 35 60 89 67 68 90 44 32 53 83 27 32 12 11 13 16 12 1 4 5 11 2 0 0 0 0 0 0 0 0 0 0 0 0 0 0 0 0 0 0
31 26 29 36 44 46 18 20 18 27 19 11 10 14 8 6 6 16 18 16 5 5 13 15 3 0 0 0 0 0 0 0 0 0 0 0 0 0 0 0 0 0 0
CIN
-74 -65 -73 -64 -50 -31 -27 -29 -33 -60 -104 -87 -102 -109 -152 -155 -106 -100 -77 -37 -28 -5 -16 -16 -34 -29 -57 -2 -2 -11 -2 -4 -3 -2 -8 -7 -4 -4 -3 -1 -7 -4 -2
-109 -75 -84 -76 -80 -73 -59 -40 -31 -71 -105 -130 -116 -109 -152 -206 -372 -139 -106 -63 -6 -13 -2 -4 -10 -32 -33 -41 -9 -25 -10 -3 -6 -2 -3 -1 -4 -3 -1 -2 -2 -4 -7
-119 -107 -88 -93 -103 -96 -77 -55 -34 -77 -148 -182 -166 -174 -261 -254 -302 -317 -216 -126 -55 -4 -13 -12 -10 -26 -50 -13 -22 -7 -20 -4 -7 -11 -3 0 -3 -5 -8 -4 -3 -2 -4
-108 -109 -119 -108 -102 -92 -76 -61 -52 -110 -184 -228 -249 -245 -297 -245 -113 -263 -285 -105 -69 -10 -19 -11 -7 -20 -23 -12 -19 -12 -32 -10 -15 -13 -4 -4 -3 -7 -19 -2 -4 -6 -29
-86 -98 -112 -102 -89 -68 -94 -73 -47 -125 -173 -256 -311 -319 -321 -364 -358 -265 -210 -98 -35 -9 -23 -4 -1 -9 -13 -41 -98 -13 -10 -20 -2 -2 -2 -1 -1 -4 -4 -3 -2 -1 -14
-69 -81 -89 -75 -90 -85 -91 -89 -73 -124 -236 -265 -268 -402 -377 0 0 -170 -156 -169 -49 -17 -2 -3 -10 -3 -32 -58 -55 -68 -57 -49 -18 -11 -4 -1 -7 -7 -3 -1 -2 -1 -1
-107 -105 -97 -76 -87 -92 -87 -95 -103 -156 -236 -298 -379 -346 0 -111 0 0 0 -150 -60 -4 -4 -4 -6 -1 -34 -40 -58 -80 -95 -89 -10 0 -13 -2 -3 -5 0 -1 -1 -2 0
-157 -124 -115 -69 -56 -81 -110 -126 -147 -200 -196 -279 -307 -432 -223 -154 -226 0 0 -161 -51 -17 -3 -2 -7 -4 -4 -9 -22 -5 -9 -2 -6 -8 -2 -1 -2 -2 -3 0 0 0 -1
-185 -150 -124 -104 -67 -100 -156 -178 -219 -237 -237 -221 -400 -394 -311 -109 -175 0 0 -118 -52 -14 -3 -3 -1 -8 -20 -77 -34 -21 -12 -4 -2 -16 -24 -19 0 0 0 0 0 -1 -1
-193 -176 -125 -96 -100 -124 -129 -143 -162 -159 -203 -185 -257 -288 -239 -131 -72 -97 -171 -26 -49 -5 -4 -8 -12 -34 -136 -115 -90 -47 -3 -2 -1 -1 -13 -5 0 -2 -4 0 -19 -2 -1
-197 -161 -103 -89 -86 -101 -165 -158 -192 -189 -205 -211 -243 -207 -190 -56 -32 -110 -158 -20 -15 -9 -5 -8 -29 -118 -186 0 0 0 -21 -8 -5 0 0 -1 -2 -1 -3 -13 -11 -3 -1
-139 -116 -106 -96 -93 -100 -125 -131 -189 -161 -193 -173 -243 -163 -79 -6 -12 -126 -111 -98 -37 -28 -34 -27 -25 -162 0 0 0 0 0 0 0 0 -2 -3 0 0 0 -1 0 0 0
-88 -83 -81 -127 -114 -128 -120 -189 -221 -173 -120 -152 -111 -43 -10 -5 -3 -177 -45 0 0 -140 -131 -158 -134 0 0 0 0 0 0 0 0 -2 -2 0 0 0 0 0 0 -1 -1
-55 -125 -138 -199 -171 -183 -191 -181 -176 -128 -47 -27 -20 -1 -1 0 -3 -117 -144 0 0 0 0 -19 0 0 0 0 0 0 0 -1 -3 0 0 0 0 0 0 0 0 0 0
-168 -225 -223 -228 -180 -225 -446 -254 -36 -286 -133 -9 -1 -4 -1 -9 -20 -33 0 0 -174 -59 -5 -17 -5 -1 -4 -8 -10 -9 -16 -2 -2 -1 0 0 0 0 0 0 0 0 0
-141 -134 -141 -171 -149 -143 -177 -283 0 0 0 0 0 -65 0 -6 0 0 0 0 0 0 -23 -1 0 -2 -12 -12 -11 -9 -4 -5 -2 -1 0 0 0 0 0 0 0 0 0
-80 -70 -120 -95 -58 -30 -42 -69 -124 0 0 0 0 0 0 0 0 0 0 0 0 0 0 0 -2 -5 -4 -8 -6 -3 -3 -3 0 0 0 0 0 0 0 0 0 0 0
-63 -95 -64 -37 -33 -52 -80 -63 -89 0 0 0 0 0 0 0 0 0 0 0 0 0 0 0 -2 -4 -3 -1 -3 -2 -2 0 0 0 0 0 0 0 0 0 0 0 0
-44 -49 -29 -31 -25 -50 -54 -37 -29 -3 -11 0 0 0 0 0 0 0 0 0 -1 -1 -1 -3 -1 -2 -2 -3 -1 0 0 0 0 0 0 0 0 0 0 0 0 0 0
-54 -93 -52 -11 -93 -27 0 -2 -16 -6 -16 -34 0 0 0 0 0 0 0 0 0 0 0 0 0 0 0 0 0 0 0 0 0 0 0 0 0 0 0 0 0 0 0
-105 0 0 -18 -30 -33 -20 -7 -3 -2 -23 -21 -18 -2 0 0 0 -1 -5 -1 0 -1 0 0 0 0 0 0 0 0 0 0 0 0 0 0 0 0 0 0 0 0 0
-17 -5 -21 -10 -5 -3 -3 -2 -1 -3 -3 -10 -60 -87 0 0 -3 -12 -10 -3 -3 -1 -1 0 0 0 0 0 0 0 0 0 0 0 0 0 0 0 0 0 0 0 0
-3 -7 -5 -8 -24 -18 -7 -3 -2 -3 -5 -47 -65 -83 -67 -16 -2 -4 -11 -4 -2 -1 -1 -2 0 0 0 0 0 0 0 0 0 0 0 0 0 0 0 0 0 0 0
-7 -4 -13 -12 -22 -10 -3 -3 -2 -9 -5 -38 -63 -73 -9 -3 -3 -3 -9 -5 -6 -6 -1 -1 -1 0 0 0 0 0 0 0 0 0 0 0 0 0 0 0 0 0 0
-3 -7 -28 -21 -13 -3 -6 -4 -32 -23 -6 -31 -19 -17 -22 -24 -7 -3 -2 -16 -2 -7 -3 -1 -2 0 0 0 0 0 0 0 0 0 0 0 0 0 0 0 0 0 0
-2 -10 -6 -13 -14 -11 -11 -10 -6 -10 -17 -20 -21 -12 -21 -25 -28 -27 -28 -26 -29 -4 -1 -2 -3 0 0 0 0 0 0 0 0 0 0 0 0 0 0 0 0 0 0
Wind_Speed
23 22 21 18 15 14 16 14 10 8 5 4 4 3 3 5 9 16 16 24 20 19 20 21 19 18 20 21 24 25 23 23 28 28 27 29 28 30 30 26 27 27 27
23 24 20 15 15 15 16 13 10 9 7 8 5 5 4 3 4 5 5 7 16 19 21 21 20 16 14 18 18 23 27 29 31 33 30 29 27 30 30 33 30 28 31
22 20 16 16 16 16 14 13 11 11 10 9 8 8 9 9 3 6 9 4 6 21 22 20 19 18 17 19 23 22 26 25 24 30 36 32 30 32 34 32 32 31 29
19 18 17 16 16 14 14 15 13 13 12 12 11 11 10 9 8 7 8 5 6 7 13 16 16 18 19 18 18 20 22 27 31 33 33 35 34 31 32 33 38 32 30
17 17 17 15 14 14 13 12 12 12 13 13 13 13 12 10 9 8 7 6 8 9 9 11 14 16 21 22 26 29 31 29 31 33 35 34 35 33 36 38 38 36 32
15 17 14 12 12 12 12 12 10 11 12 12 12 12 12 12 12 10 9 8 10 11 11 10 18 19 22 23 22 21 24 26 29 32 34 36 37 37 35 35 35 37 38
15 14 12 11 11 10 9 8 9 8 8 9 12 13 13 12 13 11 11 9 8 9 10 14 14 14 19 21 22 24 25 24 22 27 30 33 36 35 37 39 37 37 35
15 13 12 10 8 7 7 7 6 7 8 7 9 11 11 13 13 11 11 9 9 11 12 15 15 15 19 21 27 26 25 25 23 24 26 28 28 31 33 34 34 32 27
11 12 10 10 8 6 7 6 7 7 8 9 8 10 11 12 11 9 8 8 9 10 15 16 16 18 21 24 26 25 26 27 28 25 25 27 28 29 26 28 30 30 31
12 10 9 8 7 7 6 7 7 8 8 9 11 11 11 11 12 10 8 9 8 8 10 14 17 17 19 22 23 22 26 28 30 30 27 28 25 21 17 16 20 28 29
9 8 7 6 7 7 8 9 9 10 10 12 12 13 10 10 11 9 7 8 10 14 16 17 18 16 18 19 21 23 26 29 30 31 30 27 25 25 24 21 17 25 31
7 6 6 8 7 10 10 11 12 12 13 15 14 13 10 12 12 10 8 8 15 15 17 20 21 15 17 18 20 23 26 28 29 28 27 27 28 28 28 29 30 26 23
6 7 8 8 10 11 10 12 12 14 14 14 14 15 15 14 11 9 9 12 13 15 20 21 16 17 19 22 22 24 26 27 24 24 26 27 28 29 29 26 23 25 25
7 9 10 8 9 11 12 13 14 13 12 16 17 18 18 13 10 10 11 12 12 14 16 15 18 20 22 24 22 21 23 20 24 26 26 26 28 29 30 31 32 32 32
8 8 8 9 10 12 14 16 14 16 16 17 17 17 16 14 11 10 9 8 10 11 11 15 18 20 20 19 21 20 17 20 23 24 26 28 29 29 30 31 31 31 33
6 7 8 8 8 9 10 13 17 16 16 16 15 15 14 11 10 9 9 11 13 15 16 19 21 22 21 21 17 16 19 22 22 24 27 28 29 29 30 31 29 32 34
9 7 8 9 9 10 12 13 15 16 17 17 16 14 12 10 9 9 10 13 16 19 19 20 21 21 21 18 19 21 22 21 24 25 24 27 27 28 29 30 31 32 35
10 9 9 9 10 11 12 13 15 16 15 15 16 13 11 10 10 10 11 13 17 18 19 19 21 20 18 18 19 20 20 22 23 23 25 25 25 27 29 30 31 33 35
10 10 10 11 11 12 13 15 14 13 12 12 13 11 10 10 11 11 11 15 18 18 19 20 19 18 18 17 18 19 21 21 22 24 22 23 25 27 29 30 31 32 34
12 13 12 10 12 13 13 12 11 11 9 10 11 9 9 10 11 12 12 13 15 16 18 18 18 17 17 17 17 18 18 18 19 20 21 23 25 27 28 30 31 33 34
12 12 14 10 11 10 11 11 12 10 8 7 9 3 5 8 9 9 10 11 14 15 15 16 17 15 14 13 13 13 14 15 17 18 20 22 24 26 28 29 31 32 32
9 9 8 11 10 11 10 11 11 11 11 11 9 5 3 8 8 9 8 11 12 13 15 15 15 13 13 13 13 12 12 14 16 18 20 22 24 26 28 29 30 31 31
12 9 12 12 14 13 12 12 12 13 15 10 7 6 6 9 6 8 8 10 10 12 13 14 14 13 12 12 11 11 11 13 16 17 19 22 24 26 27 28 29 29 30
14 14 13 15 15 15 15 14 13 14 13 11 8 8 7 9 7 7 10 10 10 11 11 12 11 12 13 12 11 9 9 12 16 16 20 19 22 25 25 27 27 28 28
15 16 16 15 14 15 13 12 11 12 15 14 9 11 9 4 3 9 8 11 7 8 7 9 10 10 10 9 9 11 13 14 15 17 16 18 20 21 24 25 26 27 26
13 13 12 12 14 13 16 18 15 13 14 17 16 9 11 13 12 7 5 4 5 3 6 9 9 9 10 9 7 10 11 13 12 14 15 15 18 21 23 21 24 25 25
Wind_Direction
183 183 182 184 183 184 184 181 180 174 158 141 151 133 96 28 20 353 324 313 316 320 322 322 330 337 333 332 327 323 323 324 317 319 326 323 325 323 323 324 322 322 321
185 184 188 192 192 193 195 195 197 197 194 186 186 191 177 205 175 35 13 328 311 309 310 316 322 334 341 335 338 323 314 314 314 309 318 320 325 325 322 318 320 322 320
183 186 194 197 200 202 205 204 203 205 206 206 211 213 217 207 243 355 358 327 289 301 304 311 317 324 330 331 326 327 321 325 320 311 307 321 323 324 321 317 320 320 322
188 191 193 197 200 204 204 206 209 213 215 218 221 226 228 229 267 308 342 328 285 288 305 310 316 319 321 327 328 328 324 318 313 310 311 316 321 324 322 318 317 319 319
194 194 196 197 200 202 207 214 218 226 230 231 237 236 236 242 271 294 317 311 309 296 295 304 312 314 315 319 318 314 311 316 314 315 316 319 319 323 320 319 316 318 320
201 196 198 201 205 207 211 220 228 235 238 243 246 247 248 258 287 280 307 305 306 293 294 303 309 311 312 317 317 319 317 317 315 316 316 316 318 318 320 318 318 318 315
204 199 207 209 210 207 214 226 231 238 258 258 252 254 261 278 299 289 294 295 293 280 287 302 307 313 319 322 319 316 319 317 318 319 318 318 318 320 318 315 318 317 317
203 203 205 205 211 215 223 225 236 256 264 285 271 266 270 288 300 283 289 277 279 289 297 301 302 308 320 322 319 315 317 319 321 319 318 319 321 324 322 320 320 319 320
209 223 209 204 207 215 220 229 254 257 273 283 296 279 277 288 292 290 287 280 281 283 296 302 308 314 319 320 318 316 316 318 320 318 318 320 322 323 323 324 326 325 324
213 215 220 215 216 230 245 270 290 292 291 301 306 301 288 288 303 297 273 285 283 274 286 302 311 318 323 320 320 320 319 320 321 321 323 322 323 322 317 315 322 325 327
207 207 220 240 266 275 283 289 296 298 305 307 315 312 301 304 304 296 270 282 292 307 307 309 316 315 318 318 319 322 321 321 320 320 321 322 326 328 330 333 329 326 324
202 216 244 276 291 297 296 303 307 311 310 312 317 317 314 313 310 307 279 276 308 307 309 314 314 313 320 322 324 324 324 323 323 322 323 325 327 327 328 328 327 327 325
233 258 272 301 298 307 304 314 314 310 313 315 318 316 317 317 318 314 300 310 309 312 317 319 316 321 324 324 323 324 325 324 326 327 327 328 328 328 330 331 334 334 331
265 286 301 309 312 317 315 316 319 315 316 318 319 318 317 320 324 327 319 316 316 321 316 327 319 322 323 327 330 327 330 332 331 329 328 330 330 330 330 330 330 331 330
290 300 309 318 319 322 327 328 327 330 328 327 328 327 327 324 324 330 330 329 327 329 324 330 326 326 325 328 330 332 334 334 334 333 331 329 330 331 331 332 333 334 330
308 314 327 323 326 328 328 330 340 340 339 341 343 346 347 348 354 357 358 349 344 336 330 324 324 325 329 331 332 335 336 335 334 333 330 330 331 332 331 333 336 335 331
312 325 324 321 322 323 324 325 323 333 341 340 338 340 348 354 359 354 347 340 333 329 328 327 326 330 335 336 334 333 333 336 335 333 335 332 332 332 332 333 335 335 330
321 322 327 326 326 329 329 326 326 329 329 337 343 348 358 2 2 357 349 343 335 334 330 330 333 335 338 338 337 337 337 336 337 337 335 335 334 333 332 334 335 334 330
309 320 322 326 329 331 330 327 328 335 338 348 347 352 360 360 357 353 345 336 335 337 338 337 341 342 342 344 342 340 338 338 338 336 339 339 336 332 332 333 334 334 333
316 318 320 327 330 330 333 335 338 346 352 345 347 343 350 348 344 341 339 340 344 346 346 347 347 350 350 348 347 345 344 344 344 344 342 340 338 335 333 332 332 330 332
319 318 319 330 334 340 341 340 341 345 346 340 331 356 19 351 344 345 348 351 348 351 354 356 357 358 0 3 2 358 356 354 351 350 347 344 342 340 337 335 332 331 333
325 331 321 325 332 340 343 345 346 342 343 344 359 12 26 356 351 352 353 351 354 355 357 1 1 6 6 5 5 4 3 1 358 353 350 347 344 342 339 335 334 332 332
321 331 325 327 334 343 338 336 337 339 340 359 10 5 349 345 346 352 350 350 360 360 360 1 5 7 13 15 16 16 13 7 3 359 353 350 348 344 342 338 334 333 333
319 321 335 328 330 332 332 336 335 335 331 347 354 349 347 345 346 348 348 2 359 1 7 10 11 10 11 11 20 32 28 14 5 6 358 1 356 350 349 343 339 332 335
324 322 323 328 328 324 332 330 331 331 326 332 332 336 338 346 8 350 357 347 11 12 22 17 17 21 22 24 25 23 17 9 2 1 8 2 1 360 351 347 344 334 339
333 329 330 326 326 325 321 319 320 325 321 319 321 335 333 325 326 338 357 7 1 39 23 16 18 22 20 24 38 29 23 17 18 8 6 10 4 359 357 4 352 342 343